Satellite: MET-2/21
Catalog number: 22782
Epoch time:      10327.88726832
Element set:    0946
Inclination:      082.5446 deg
RA of node:       125.7612 deg
Eccentricity:    0.0021338
Arg of perigee:   317.6244 deg
Mean anomaly:     042.3276 deg
Mean motion:   13.83650529 rev/day
Decay rate:        7.7e-07 rev/day^2
Epoch rev:           87016
Checksum:              312

Satellite: OKEAN-4
Catalog number: 23317
Epoch time:      10327.84207882
Element set:     401
Inclination:      082.5417 deg
RA of node:       204.8333 deg
Eccentricity:    0.0023863
Arg of perigee:   076.4640 deg
Mean anomaly:     283.9244 deg
Mean motion:   14.82898707 rev/day
Decay rate:       3.29e-06 rev/day^2
Epoch rev:           87011
Checksum:              303

Satellite: NOAA-14
Catalog number: 23455
Epoch time:      10327.80171327
Element set:    0276
Inclination:      098.8690 deg
RA of node:       047.3467 deg
Eccentricity:    0.0009851
Arg of perigee:   138.6721 deg
Mean anomaly:     221.5190 deg
Mean motion:   14.13801028 rev/day
Decay rate:        1.7e-07 rev/day^2
Epoch rev:           82005
Checksum:              285

Satellite: NOAA-15
Catalog number: 25338
Epoch time:      10327.98051662
Element set:    0605
Inclination:      098.6354 deg
RA of node:       312.1766 deg
Eccentricity:    0.0010323
Arg of perigee:   334.9344 deg
Mean anomaly:     025.1322 deg
Mean motion:   14.24868533 rev/day
Decay rate:       1.40e-06 rev/day^2
Epoch rev:           65150
Checksum:              279

Satellite: RESURS
Catalog number: 25394
Epoch time:      10327.54478824
Element set:    0660
Inclination:      098.3004 deg
RA of node:       336.9147 deg
Eccentricity:    0.0002203
Arg of perigee:   097.0610 deg
Mean anomaly:     263.0815 deg
Mean motion:   14.24216847 rev/day
Decay rate:        4.0e-07 rev/day^2
Epoch rev:           64303
Checksum:              271

Satellite: FENGYUN1
Catalog number: 25730
Epoch time:      10327.87958344
Element set:     191
Inclination:      098.8006 deg
RA of node:       288.7970 deg
Eccentricity:    0.0019732
Arg of perigee:   172.4211 deg
Mean anomaly:     187.7277 deg
Mean motion:   14.08429060 rev/day
Decay rate:      1.361e-05 rev/day^2
Epoch rev:           59416
Checksum:              319

Satellite: OKEAN-0
Catalog number: 25860
Epoch time:      10327.84385089
Element set:    0159
Inclination:      097.8550 deg
RA of node:       295.3129 deg
Eccentricity:    0.0000749
Arg of perigee:   048.5592 deg
Mean anomaly:     311.5686 deg
Mean motion:   14.73686132 rev/day
Decay rate:       1.74e-06 rev/day^2
Epoch rev:           61041
Checksum:              317

Satellite: NOAA-16
Catalog number: 26536
Epoch time:      10327.95201739
Element set:    0082
Inclination:      099.1613 deg
RA of node:       349.1230 deg
Eccentricity:    0.0009930
Arg of perigee:   246.5341 deg
Mean anomaly:     113.4761 deg
Mean motion:   14.12586807 rev/day
Decay rate:       -1.0e-08 rev/day^2
Epoch rev:           52438
Checksum:              286

Satellite: NOAA-17
Catalog number: 27453
Epoch time:      10327.61674709
Element set:    0072
Inclination:      098.4114 deg
RA of node:       011.4690 deg
Eccentricity:    0.0012173
Arg of perigee:   035.9206 deg
Mean anomaly:     324.2799 deg
Mean motion:   14.24210920 rev/day
Decay rate:       -8.6e-07 rev/day^2
Epoch rev:           43739
Checksum:              291

Satellite: NOAA-18
Catalog number: 28654
Epoch time:      10327.66470591
Element set:    0562
Inclination:      098.9702 deg
RA of node:       273.6080 deg
Eccentricity:    0.0014070
Arg of perigee:   327.2907 deg
Mean anomaly:     032.7381 deg
Mean motion:   14.11410020 rev/day
Decay rate:      -1.16e-06 rev/day^2
Epoch rev:           28393
Checksum:              283

Satellite: NOAA-19
Catalog number: 33591
Epoch time:      10327.61667105
Element set:    0756
Inclination:      098.8059 deg
RA of node:       266.4621 deg
Eccentricity:    0.0013759
Arg of perigee:   195.1385 deg
Mean anomaly:     164.9377 deg
Mean motion:   14.11104475 rev/day
Decay rate:       1.77e-06 rev/day^2
Epoch rev:           09239
Checksum:              330

/EX
SB KEPS @ AMSAT  $ORB10328.M
Orbital Elements  10328.MISC

HR AMSAT ORBITAL ELEMENTS FOR MANNED AND MISCELLANEOUS SATELLITES
FROM WA5QGD FORT WORTH,TX November 24, 2010
BID: ORB10328.M
TO ALL RADIO AMATEURS BT

Satellite: HUBBLE
Catalog number: 20580
Epoch time:      10326.29371627
Element set:    0679
Inclination:      028.4707 deg
RA of node:       287.6103 deg
Eccentricity:    0.0003590
Arg of perigee:   084.5178 deg
Mean anomaly:     275.5728 deg
Mean motion:   15.01100982 rev/day
Decay rate:       7.43e-06 rev/day^2
Epoch rev:           92853
Checksum:              304

Satellite: ISS
Catalog number: 25544
Epoch time:      10328.53341692
Element set:     331
Inclination:      051.6429 deg
RA of node:       129.9864 deg
Eccentricity:    0.0006958
Arg of perigee:   237.2523 deg
Mean anomaly:     192.1606 deg
Mean motion:   15.73062245 rev/day
Decay rate:     1.3805e-04 rev/day^2
Epoch rev:           68869
Checksum:              313

Satellite: CO-58
Catalog number: 28895
Epoch time:      10327.87898337
Element set:    0735
Inclination:      097.9928 deg
RA of node:       206.8567 deg
Eccentricity:    0.0018549
Arg of perigee:   142.0022 deg
Mean anomaly:     218.2536 deg
Mean motion:   14.59970170 rev/day
Decay rate:       4.96e-06 rev/day^2
Epoch rev:           27028
Checksum:              360

